• în Republica Moldova
  • Lista ţărilor
  • Pe 7 zile
  • Temperatura apei
  • Hartă satelitară
  • Meteo pe hartă
  • Widget-uri
  • user-avatar
    Intrare

    Meteo pe oră la Igls

    Astăzi, 28 Februarie, Marţi

    Timp Temperatura Precipitaţii Vânt Presiune Umiditate
    00:00 +1°C° 0 mm 3 m/s 676 mmHg 93%
    01:00 0°C° 0 mm 4 m/s 675 mmHg 92%
    02:00 0°C° 0 mm 4 m/s 674 mmHg 92%
    03:00 +1°C° 0 mm 3 m/s 674 mmHg 92%
    04:00 +1°C° 0 mm 3 m/s 673 mmHg 92%
    05:00 +1°C° 0 mm 3 m/s 673 mmHg 93%
    06:00 +1°C° 0 mm 3 m/s 673 mmHg 94%
    07:00 +2°C° 0 mm 2 m/s 674 mmHg 96%
    08:00 +3°C° 0,6 mm 2 m/s 673 mmHg 96%
    09:00 +3°C° 0,6 mm 2 m/s 673 mmHg 95%
    10:00 +4°C° 0,6 mm 2 m/s 673 mmHg 95%
    11:00 +4°C° 0,8 mm 2 m/s 673 mmHg 96%
    12:00 +5°C° 0,8 mm 2 m/s 672 mmHg 96%
    13:00 +5°C° 0,8 mm 2 m/s 672 mmHg 96%
    14:00 +5°C° 0,9 mm 2 m/s 671 mmHg 96%
    15:00 +5°C° 0,9 mm 2 m/s 670 mmHg 96%
    16:00 +5°C° 0,9 mm 2 m/s 669 mmHg 97%
    17:00 +4°C° 1,3 mm 2 m/s 669 mmHg 97%
    18:00 +4°C° 1,3 mm 2 m/s 669 mmHg 97%
    19:00 +3°C° 1,3 mm 2 m/s 669 mmHg 98%
    20:00 +3°C° 1,8 mm 2 m/s 669 mmHg 98%
    21:00 +2°C° 1,8 mm 2 m/s 670 mmHg 98%
    22:00 0°C° 1,8 mm 3 m/s 671 mmHg 98%
    23:00 +1°C° 1,4 mm 2 m/s 671 mmHg 97%

    Mâine, 1 Martie, Miercuri

    Timp Temperatura Precipitaţii Vânt Presiune Umiditate
    00:00 -1°C° 1,4 mm 2 m/s 671 mmHg 97%
    01:00 -2°C° 1,4 mm 2 m/s 672 mmHg 97%
    02:00 -2°C° 0,3 mm 2 m/s 672 mmHg 97%
    03:00 -2°C° 0,3 mm 2 m/s 673 mmHg 97%
    04:00 -3°C° 0,3 mm 2 m/s 673 mmHg 96%
    05:00 -3°C° 0,1 mm 2 m/s 674 mmHg 95%
    06:00 -3°C° 0,1 mm 2 m/s 674 mmHg 94%
    07:00 -3°C° 0,1 mm 2 m/s 674 mmHg 93%
    08:00 -2°C° 0,1 mm 2 m/s 675 mmHg 93%
    09:00 -1°C° 0,1 mm 2 m/s 676 mmHg 92%
    10:00 +2°C° 0,1 mm 2 m/s 677 mmHg 92%
    11:00 +2°C° 0,1 mm 2 m/s 677 mmHg 91%
    12:00 +3°C° 0,1 mm 2 m/s 677 mmHg 90%
    13:00 +3°C° 0,1 mm 2 m/s 678 mmHg 90%
    14:00 +4°C° 0,1 mm 2 m/s 678 mmHg 90%
    15:00 +4°C° 0,1 mm 2 m/s 678 mmHg 91%
    16:00 +5°C° 0,1 mm 1 m/s 678 mmHg 92%
    17:00 +1°C° 0 mm 2 m/s 678 mmHg 93%
    18:00 -2°C° 0 mm 2 m/s 678 mmHg 93%
    19:00 -4°C° 0 mm 2 m/s 678 mmHg 94%
    20:00 -3°C° 0,1 mm 2 m/s 679 mmHg 93%
    21:00 -2°C° 0,1 mm 2 m/s 679 mmHg 93%
    22:00 -1°C° 0,1 mm 2 m/s 679 mmHg 92%
    23:00 -1°C° 0,2 mm 2 m/s 679 mmHg 92%

    Poimâine, 2 Martie, Joi

    Timp Temperatura Precipitaţii Vânt Presiune Umiditate
    00:00 0°C° 0,2 mm 3 m/s 679 mmHg 91%
    01:00 0°C° 0,2 mm 3 m/s 679 mmHg 91%
    02:00 -1°C° 0,1 mm 3 m/s 679 mmHg 91%
    03:00 -1°C° 0,1 mm 3 m/s 679 mmHg 91%
    04:00 -1°C° 0,1 mm 3 m/s 679 mmHg 92%
    05:00 -1°C° 0,1 mm 2 m/s 679 mmHg 92%
    06:00 -1°C° 0,1 mm 2 m/s 679 mmHg 92%
    07:00 -1°C° 0,1 mm 2 m/s 679 mmHg 92%
    08:00 +2°C° 0,2 mm 2 m/s 680 mmHg 93%
    09:00 +4°C° 0,2 mm 2 m/s 681 mmHg 94%
    10:00 +6°C° 0,2 mm 1 m/s 681 mmHg 94%
    11:00 +6°C° 0,3 mm 1 m/s 682 mmHg 95%
    12:00 +7°C° 0,3 mm 1 m/s 682 mmHg 95%
    13:00 +6°C° 0,3 mm 2 m/s 682 mmHg 96%
    14:00 +6°C° 0,4 mm 2 m/s 682 mmHg 96%
    15:00 +6°C° 0,4 mm 2 m/s 682 mmHg 96%
    16:00 +5°C° 0,4 mm 2 m/s 683 mmHg 96%
    17:00 +4°C° 0,1 mm 1 m/s 683 mmHg 96%
    18:00 +3°C° 0,1 mm 1 m/s 683 mmHg 96%
    19:00 +1°C° 0,1 mm 1 m/s 683 mmHg 96%
    20:00 0°C° 0 mm 1 m/s 683 mmHg 94%
    21:00 -1°C° 0 mm 1 m/s 683 mmHg 92%
    22:00 -4°C° 0 mm 2 m/s 683 mmHg 90%
    23:00 -3°C° 0 mm 2 m/s 683 mmHg 90%

    3 Martie, Vineri

    Timp Temperatura Precipitaţii Vânt Presiune Umiditate
    00:00 -2°C° 0 mm 2 m/s 683 mmHg 91%
    01:00 -1°C° 0 mm 2 m/s 683 mmHg 92%
    02:00 -1°C° 0 mm 2 m/s 682 mmHg 93%
    03:00 +1°C° 0 mm 2 m/s 682 mmHg 93%
    04:00 +2°C° 0 mm 2 m/s 682 mmHg 94%
    05:00 +2°C° 0 mm 2 m/s 682 mmHg 94%
    06:00 +1°C° 0 mm 2 m/s 681 mmHg 94%
    07:00 +1°C° 0 mm 2 m/s 681 mmHg 95%
    08:00 +3°C° 0 mm 2 m/s 681 mmHg 95%
    09:00 +3°C° 0 mm 3 m/s 681 mmHg 94%
    10:00 +5°C° 0 mm 3 m/s 681 mmHg 94%
    11:00 +5°C° 0 mm 3 m/s 680 mmHg 94%
    12:00 +7°C° 0 mm 3 m/s 679 mmHg 94%
    13:00 +7°C° 0 mm 3 m/s 679 mmHg 94%
    14:00 +7°C° 0 mm 3 m/s 678 mmHg 94%
    15:00 +7°C° 0 mm 3 m/s 678 mmHg 95%
    16:00 +7°C° 0 mm 3 m/s 677 mmHg 95%
    17:00 +5°C° 0 mm 3 m/s 677 mmHg 95%
    18:00 +5°C° 0 mm 3 m/s 677 mmHg 95%
    19:00 +4°C° 0 mm 3 m/s 676 mmHg 96%
    20:00 +4°C° 0 mm 3 m/s 676 mmHg 95%
    21:00 +4°C° 0 mm 3 m/s 676 mmHg 95%
    22:00 +3°C° 0 mm 3 m/s 676 mmHg 95%
    23:00 +3°C° 0,1 mm 3 m/s 675 mmHg 95%

    4 Martie, Sâmbătă

    Timp Temperatura Precipitaţii Vânt Presiune Umiditate
    00:00 +3°C° 0,1 mm 3 m/s 675 mmHg 95%
    01:00 +3°C° 0,1 mm 3 m/s 674 mmHg 95%
    02:00 +3°C° 0,1 mm 3 m/s 674 mmHg 95%
    03:00 +3°C° 0,1 mm 3 m/s 674 mmHg 95%
    04:00 +3°C° 0,1 mm 3 m/s 673 mmHg 94%
    05:00 +3°C° 0,1 mm 3 m/s 673 mmHg 94%
    06:00 +3°C° 0,1 mm 3 m/s 674 mmHg 95%
    07:00 +2°C° 0,1 mm 3 m/s 674 mmHg 95%
    08:00 +3°C° 0,1 mm 3 m/s 674 mmHg 94%
    09:00 +4°C° 0,1 mm 3 m/s 675 mmHg 93%
    10:00 +6°C° 0,1 mm 2 m/s 675 mmHg 92%
    11:00 +7°C° 0,1 mm 2 m/s 675 mmHg 91%
    12:00 +8°C° 0,1 mm 2 m/s 675 mmHg 90%
    13:00 +8°C° 0,1 mm 2 m/s 675 mmHg 89%
    14:00 +8°C° 0,1 mm 2 m/s 674 mmHg 90%
    15:00 +8°C° 0,1 mm 2 m/s 674 mmHg 91%
    16:00 +8°C° 0,1 mm 2 m/s 674 mmHg 92%
    17:00 +7°C° 0,1 mm 2 m/s 674 mmHg 93%
    18:00 +5°C° 0,1 mm 3 m/s 674 mmHg 94%
    19:00 +4°C° 0,1 mm 3 m/s 674 mmHg 95%
    20:00 +4°C° 0,1 mm 3 m/s 674 mmHg 95%
    21:00 +4°C° 0,1 mm 3 m/s 674 mmHg 95%
    22:00 +3°C° 0,1 mm 3 m/s 674 mmHg 95%
    23:00 +3°C° 0,1 mm 3 m/s 675 mmHg 95%

    5 Martie, Duminică

    Timp Temperatura Precipitaţii Vânt Presiune Umiditate
    00:00 +3°C° 0,1 mm 3 m/s 675 mmHg 95%
    01:00 +3°C° 0,1 mm 3 m/s 675 mmHg 94%
    02:00 +3°C° 0,1 mm 3 m/s 675 mmHg 94%
    03:00 +4°C° 0,1 mm 2 m/s 676 mmHg 94%
    04:00 +4°C° 0,1 mm 2 m/s 676 mmHg 94%
    05:00 +4°C° 0,1 mm 2 m/s 676 mmHg 95%
    06:00 +4°C° 0,1 mm 2 m/s 677 mmHg 95%
    07:00 +4°C° 0,1 mm 2 m/s 677 mmHg 95%
    08:00 +5°C° 0,1 mm 2 m/s 678 mmHg 93%
    09:00 +6°C° 0,1 mm 2 m/s 678 mmHg 92%
    10:00 +8°C° 0,1 mm 1 m/s 679 mmHg 91%
    11:00 +7°C° 0,3 mm 2 m/s 679 mmHg 91%
    12:00 +8°C° 0,3 mm 2 m/s 679 mmHg 91%
    13:00 +8°C° 0,3 mm 2 m/s 679 mmHg 92%
    14:00 +8°C° 0,7 mm 2 m/s 679 mmHg 93%
    15:00 +7°C° 0,7 mm 2 m/s 679 mmHg 95%
    16:00 +7°C° 0,7 mm 2 m/s 679 mmHg 96%
    17:00 +6°C° 0,4 mm 2 m/s 679 mmHg 97%
    18:00 +6°C° 0,4 mm 2 m/s 679 mmHg 97%
    19:00 +5°C° 0,4 mm 2 m/s 679 mmHg 98%
    20:00 +6°C° 0,3 mm 1 m/s 680 mmHg 98%
    21:00 +6°C° 0,3 mm 1 m/s 680 mmHg 98%
    22:00 +6°C° 0,3 mm 1 m/s 680 mmHg 98%
    23:00 +6°C° 0,2 mm 1 m/s 680 mmHg 98%
    Arată mai mult